Location: Observatoire
(46.1952°N, 5.3391°E)
Time: 21:32:28
(UTC+01:00)

A-11 Canister half - Pass Details

Date: 19 February 2026
Orbit: 1525 x 1683 km, 47.3° (Epoch: 5 March)

Event Time Altitude Azimuth Distance (km) Brightness Sun altitude
Rises 21:50:48 0° 289° (WNW) 4,679 12.5 -38.0°
Reaches altitude 10° 21:53:51 10° 287° (WNW) 3,693 11.7 -38.4°
Enters shadow 22:01:48 62° 246° (WSW) 1,694 9.1 -39.6°
Maximum altitude 22:03:01 67° 208° (SSW) 1,637 - -39.8°
Drops below altitude 10° 22:12:19 10° 128° (SE) 3,738 - -41.2°
Sets 22:15:25 0° 126° (SE) 4,738 - -41.6°
